Regional Weather Roundup
Issued by NWS Albany, NY

Home | Current Version | Previous Version | Text Only | Print | Product List | Glossary On
Versions: 1 2 3 4 5 6 7 8 9 10 11 12 13 14 15 16 17 18 19 20 21 22 23 24 25 26 27 28 29 30 31 32 33 34 35 36 37 38 39 40 41 42 43 44 45 46 47 48 49 50
000
ASUS41 KALY 310510
RWRALY

NEW YORK STATE HOURLY WEATHER ROUNDUP
NATIONAL WEATHER SERVICE ALBANY NY
1200 AM EST SAT JAN 31 2015

NOTE: "FAIR" INDICATES FEW OR NO CLOUDS BELOW 12,000 FEET WITH NO
SIGNIFICANT WEATHER AND/OR NO OBSTRUCTIONS TO VISIBILITY.

NYZ032-033-038>043-046>054-057>066-NYZ062>081-310600-
EAST


CITY           SKY/WX    TMP DP  RH WIND       PRES   REMARKS
ALBANY         PTCLDY     8  -4  58 NW13      30.09R WCI  -8
GLENS FALLS    CLEAR      8  -6  52 NW17G26   30.06S WCI -10
POUGHKEEPSIE   CLEAR     18   1  47 NW14G32   30.02S WCI   4
NEWBURGH       PTCLDY    16   5  62 N16G25    30.00S WCI   0
MONTGOMERY     PTCLDY    17   2  51 NW18G26   30.01R WCI   1
WHITE PLAINS   CLEAR     18   4  54 NW28G36   29.94S WCI  -1
ISLIP          PTCLDY    20   5  52 NW23G35   29.91F WCI   3
NEW YORK CITY  PTCLDY    20   7  57 NW28G35   30.01R WCI   2
CENTRAL PARK   CLEAR     19   3  49 NW17G29   30.03R WCI   4
$$

NYZ005>009-017-018-044>046-055-056-310600-
CENTRAL


CITY           SKY/WX    TMP DP  RH WIND       PRES   REMARKS
FULTON         CLOUDY     9  -1  64 N14G21    30.26S WCI  -7
SYRACUSE       LGT SNOW   5   2  87 N7        30.25R FOG     WCI  -7
ROME           CLEAR      0  -8  69 NW12      30.24R WCI -17
ELMIRA         CLOUDY     9   0  67 NW8G16    30.23S WCI  -3
BINGHAMTON     LGT SNOW   8   2  76 NW18G29   30.06S WCI -11
MONTICELLO     MOCLDY    10   3  72 NW18G33   29.97S WCI  -8
$$

NYZ026>034-041>043-310600-
NORTH


CITY           SKY/WX    TMP DP  RH WIND       PRES   REMARKS
WATERTOWN      CLEAR      1 -10  60 N5        30.30R WCI  -9
FORT DRUM      NOT AVBL
MASSENA        CLEAR     -1 -11  62 W8        30.26R WCI -15
SARANAC LAKE   CLOUDY    -4  -9  79 VRB5      30.01R WCI -15
PLATTSBURGH    PTCLDY     4  -7  60 NW13      30.14R WCI -13
$$

NYZ001>004-010>016-019>021-310600-
WEST


CITY           SKY/WX    TMP DP  RH WIND       PRES   REMARKS
NIAGARA FALLS  CLOUDY    11   3  70 NW7       30.35F WCI   0
BUFFALO        FLURRIES   8   1  73 W9        30.34F WCI  -5
DUNKIRK        CLEAR      1  -3  83 SW3       30.38F
JAMESTOWN      CLOUDY     7   1  78 N3        30.25S
WELLSVILLE     MIX PCPN   3  -3  76 NW20G28   30.17S WCI -18
ROCHESTER      MOCLDY     9   0  67 W9        30.32R WCI  -4
PENN YAN       MIX PCPN   9   0  67 W9G21     30.25R WCI  -4
$$

             KEY
       WCI = WIND CHILL INDEX
       VSB = VISIBILITY
       HX  = HEAT INDEX
$$



USA.gov is the U.S. government's official web portal to all federal, state and local government web resources and services.